Home   Weather   Town of Fairfield   Past weeks
Flag for USA

Past Weather in Town of Fairfield, Wisconsin, USA — Yesterday and Last 2 Weeks

Now
36 °F

Overcast.


Feels Like: 27 °F
Forecast: 38 / 24 °F
Wind: 15 mph from North

Location: Dane County Regional-Truax Field

Current Time: Dec 6, 2019 at 3:01:40 am

Latest Report: Dec 6, 2019 at 1:53 am


Visibility: 10 mi

Pressure: 30.06 "Hg

Humidity: 79%

Dew Point: 30 °F

Location of Town of FairfieldLocation

Past Weather in Town of Fairfield — Graph

°F

Town of Fairfield Temperature Yesterday

Maximum temperature yesterday: 41 °F (at 3:53 pm)
Minimum temperature yesterday: 23 °F (at 5:53 am)
Average temperature yesterday: 33 °F

High & Low Weather Summary for the Past Weeks

 TemperatureHumidityPressure
High52 °F (Nov 21, 11:53 am)100% (Nov 27, 3:18 am)30.55 "Hg (Nov 27, 3:18 am)
Low23 °F (Dec 5, 5:53 am)37% (Nov 23, 1:53 pm)29.16 "Hg (Nov 27, 6:05 am)
Average35 °F81%29.83 "Hg
* Reported Nov 21 1:53 am — Dec 6 1:53 am, Town of Fairfield. Weather by CustomWeather, © 2019

Note: Actual official high and low records may vary slightly from our data, if they occured in-between our weather recording intervals... More about our weather records

Town of Fairfield Weather History for the Previous 24 Hours

Scroll right to see more
 ConditionsComfort  
Time TempWeatherWind HumidityBarometerVisibility
1:53 am
Fri, Dec 6
36 °FOvercast.15 mph79%30.06 "Hg10 mi
12:53 am37 °FOvercast.8 mph79%30.00 "Hg10 mi
11:53 pm
Thu, Dec 5
38 °FOvercast.9 mph83%29.96 "Hg10 mi
11:29 pm34 °FPassing clouds.6 mph92%29.93 "Hg7 mi
10:53 pm31 °FPassing clouds.5 mph96%29.95 "Hg7 mi
9:53 pm33 °FPassing clouds.No wind92%29.91 "Hg9 mi
8:53 pm39 °FPassing clouds.7 mph79%29.91 "Hg10 mi
7:53 pm39 °FPassing clouds.7 mph79%29.92 "Hg10 mi
6:53 pm39 °FPassing clouds.6 mph76%29.92 "Hg10 mi
5:53 pm39 °FPassing clouds.8 mph76%29.92 "Hg10 mi
4:53 pm40 °FPartly cloudy.6 mph73%29.92 "Hg10 mi
3:53 pm41 °FPartly sunny.10 mph70%29.91 "Hg10 mi
2:53 pm40 °FPartly sunny.9 mph70%29.93 "Hg10 mi
1:53 pm40 °FOvercast.9 mph68%29.93 "Hg10 mi
12:53 pm40 °FMostly cloudy.10 mph65%29.94 "Hg10 mi
11:53 am39 °FPartly sunny.12 mph67%29.96 "Hg10 mi
10:53 am37 °FBroken clouds.10 mph70%30.00 "Hg10 mi
9:53 am34 °FBroken clouds.9 mph79%30.01 "Hg10 mi
8:53 am30 °FPartly sunny.6 mph89%30.00 "Hg9 mi
7:53 am26 °FIce fog.5 mph88%30.01 "Hg6 mi
6:53 am24 °FPassing clouds.3 mph84%30.00 "Hg9 mi
5:53 am23 °FPassing clouds.No wind88%29.99 "Hg9 mi
4:53 am24 °FClear.No wind88%29.99 "Hg9 mi
3:53 am24 °FClear.No wind88%29.97 "Hg9 mi
Weather by CustomWeather, © 2019

See weather overview

Advertising